Regional Weather Roundup
Issued by NWS Cleveland, OH

Home | Current Version | Previous Version | Text Only | Print | Product List | Glossary On
Versions: 1 2 3 4 5 6 7 8 9 10 11 12 13 14 15 16 17 18 19 20 21 22 23 24 25 26 27 28 29 30 31 32 33 34 35 36 37 38 39 40 41 42 43 44 45 46 47 48 49 50
000
ASUS41 KCLE 221110
RWRCLE
OHIO REGIONAL WEATHER ROUNDUP
NATIONAL WEATHER SERVICE WILMINGTON, OH
700 AM EDT SUN APR 22 2018

NOTE: "FAIR" INDICATES FEW OR NO CLOUDS BELOW 12,000 FEET WITH NO
SIGNIFICANT WEATHER AND/OR OBSTRUCTIONS TO VISIBILITY.

OHZ001>008-015>018-024>027-034-035-043-044-221200-
   NORTHWEST OHIO

CITY           SKY/WX    TMP DP  RH WIND       PRES   REMARKS
DEFIANCE       FAIR      39  21  48 E6        30.37S
FINDLAY        FAIR      41  23  48 NE9       30.35S
TOLEDO EXPRESS FAIR      36  27  69 NE6       30.38R
TOLEDO EXEC    FAIR      37  32  82 CALM      30.40R
LIMA           FAIR      38  27  64 NE8       30.33F
$$

OHZ009>014-019>023-028>033-038-089-221200-
   NORTHEAST OHIO

CITY           SKY/WX    TMP DP  RH WIND       PRES   REMARKS
CLE-HOPKINS    FAIR      36  31  82 CALM      30.41R
CLE-LAKEFRONT  FAIR      39  30  70 NE9       30.38R
CUY CO. ARPT   MOCLDY    32  23  69 CALM      30.39
LORAIN-ELYRIA  FAIR      35  29  78 NE9       30.39R WCI  28
ASHTABULA      FAIR      29  27  92 CALM      30.40R
AKRON-CANTON   MOCLDY    42  23  46 NE5       30.36R
WOOSTER        FAIR      40  28  62 NE3       30.36R
MANSFIELD      FAIR      40  26  57 N5        30.35R
YOUNGSTOWN     FAIR      36  22  56 E8        30.36R
$$

OHZ042-051>053-060>062-070>072-077>081-221200-
  SOUTHWEST OHIO

CITY           SKY/WX    TMP DP  RH WIND       PRES   REMARKS
CINC-COVINGTON CLOUDY    48  27  44 NE8       30.28R
CINC-LUNKEN    FAIR      45  39  79 NE3       30.30R
HAMILTON       FAIR      45  34  65 CALM      30.31R
DAYTON         CLOUDY    43  29  57 NE5       30.32R
WRIGHT-PAT AFB FAIR      44  28  54 NE6       30.31R
DAYTON GENERAL FAIR      45  28  51 NE7       30.29R
WILMINGTON     FAIR      44  31  60 E7        30.29R
$$

OHZ036-037-039>041-045>050-054>059-063>069-073>076-082>088-221200-
  CENTRAL AND SOUTHEAST OHIO

CITY           SKY/WX    TMP DP  RH WIND       PRES   REMARKS
COLUMBUS       MOCLDY    46  29  51 NE7       30.31R
OSU AIRPORT    FAIR      41  30  65 N6        30.31S
BOLTON FIELD   FAIR      42  31  62 NE5       30.32R
RICKENBACK AFB FAIR      43  31  62 NE5       30.31R
NEWARK         FAIR      44  30  57 CALM      30.31S
MARION         FAIR      37  29  72 NE7       30.34S
LANCASTER      FAIR      42  33  70 NW3       30.31S
ZANESVILLE     FAIR      43  30  60 N3        30.31S
NEW PHILLY     FAIR      41  33  73 CALM      30.35R
$$



USA.gov is the U.S. government's official web portal to all federal, state and local government web resources and services.